Location: Crescent
(42.8242°N, 73.7329°W)
Time: 18:24:55
(UTC+00:00)

Tiros 1 - Pass Details

Date: 21 February 2026
Orbit: 618 x 649 km, 48.4° (Epoch: 10 March)

Event Time Altitude Azimuth Distance (km) Brightness Sun altitude
Rises 12:34:16 0° 240° (WSW) 2,917 10.1 8.1°
Reaches altitude 10° 12:36:36 10° 240° (WSW) 2,006 9.4 8.5°
Maximum altitude 12:41:13 86° 153° (SSE) 633 7.4 9.2°
Drops below altitude 10° 12:45:49 10° 65° (ENE) 1,994 10.4 10.0°
Sets 12:48:07 0° 65° (ENE) 2,899 11.1 10.4°
